Wind_Speed
10 14 17 7 4 1 4 6 7 7 7 5 3 2 2 1 2 2 4 5 6 6 5 3 2 1 0 1 1 2 4 6 5 6 6 7 10 8 6 9 13 14 16
9 12 14 9 7 3 1 4 7 8 9 7 4 1 1 2 1 1 2 3 6 6 5 3 2 1 1 1 2 3 4 5 5 6 6 6 8 8 10 13 15 16 17
11 18 14 11 7 5 1 5 8 10 9 6 4 3 1 1 2 2 2 3 4 6 6 5 4 3 2 1 2 2 3 5 6 5 4 5 5 8 12 14 12 16 16
25 15 12 10 7 3 2 5 7 9 10 9 5 4 3 3 2 2 3 3 5 5 5 5 4 3 3 3 3 3 3 4 5 6 6 7 7 10 11 13 15 16 17
13 14 13 10 8 4 2 3 6 10 12 13 7 4 4 3 3 4 4 4 4 4 4 4 5 5 5 6 6 6 6 7 7 7 7 8 9 10 12 13 16 17 18
16 12 11 9 10 7 6 4 7 9 11 12 8 4 4 5 5 5 5 4 3 3 2 3 5 5 7 8 8 8 9 9 9 9 10 11 12 13 14 15 16 17 18
21 19 13 12 15 11 9 7 8 10 12 13 13 6 5 5 6 6 5 5 4 3 3 5 6 7 8 9 9 9 10 10 10 11 12 12 13 14 15 15 17 18 19
26 21 18 13 14 13 10 9 9 10 11 14 13 9 6 7 6 8 7 6 4 5 6 7 5 7 10 10 9 9 10 11 11 12 12 13 14 15 15 15 15 16 16
30 23 14 17 17 15 13 14 13 11 12 13 14 13 10 8 9 7 9 9 9 9 8 8 8 10 10 14 12 12 12 15 12 11 11 11 11 12 13 14 15 14 11
22 17 13 13 17 19 11 16 14 14 15 14 15 14 12 10 11 9 8 10 10 10 14 12 11 11 14 15 11 14 16 16 13 12 11 11 12 13 13 12 12 12 10
13 11 14 15 15 23 20 22 18 17 17 19 15 14 12 11 12 11 10 11 10 14 16 13 14 11 16 14 14 15 16 15 13 11 12 12 12 12 9 9 9 9 10
1 11 16 13 9 11 16 23 24 25 23 21 17 14 12 13 13 14 13 12 12 13 13 13 15 17 16 14 13 15 14 12 11 10 9 12 11 12 14 13 12 12 12
11 11 9 19 18 17 22 23 22 20 20 22 18 16 14 12 14 14 13 12 12 14 15 17 18 20 14 14 15 13 11 11 8 8 9 11 12 12 13 14 15 13 14
12 12 16 20 21 23 22 21 17 20 20 22 19 18 17 15 14 14 14 14 14 15 14 14 15 13 15 15 13 10 9 8 8 9 10 12 14 15 15 15 15 14 13
17 17 18 21 20 24 23 22 23 23 22 20 20 18 16 17 14 15 15 14 15 15 16 12 13 14 15 12 11 10 10 9 9 10 11 12 13 13 13 14 13 12 11
16 17 18 19 20 19 18 19 21 22 21 21 18 18 17 17 16 17 15 16 16 15 13 12 12 8 8 11 11 12 10 10 11 11 12 11 11 11 11 12 12 11 10
17 17 18 19 16 16 17 17 19 19 20 21 21 20 18 19 17 17 17 17 16 15 12 11 8 11 11 10 10 9 12 13 12 11 11 11 10 11 11 10 11 9 9
20 19 19 19 19 18 18 18 19 20 22 22 21 20 19 19 19 19 19 18 16 14 12 8 11 13 12 12 11 11 12 14 12 11 12 11 12 11 9 10 8 12 15
24 24 23 21 20 20 20 20 21 22 23 23 21 21 20 20 21 20 18 16 15 14 12 10 15 14 13 13 13 13 12 12 13 14 12 11 10 10 10 10 12 17 20
27 26 25 26 27 25 24 24 25 24 23 23 20 20 20 20 19 17 15 14 14 10 12 12 15 15 14 15 16 14 12 12 13 10 10 12 12 12 12 13 12 12 15
28 28 28 26 26 25 25 23 22 24 23 22 20 20 19 18 17 16 15 14 12 12 15 14 12 14 14 15 13 12 8 8 12 14 12 16 19 21 19 18 19 13 16
23 25 29 24 24 26 24 23 23 22 20 19 20 19 18 16 13 14 13 13 13 14 14 16 14 12 13 13 13 13 14 15 16 19 19 22 24 23 25 22 18 20 18
21 20 21 20 24 25 25 20 20 17 16 14 15 18 17 14 10 11 11 11 12 13 16 16 14 14 17 24 22 22 20 20 22 25 25 25 27 27 27 26 26 26 25
21 21 23 21 27 28 25 21 17 17 17 17 17 19 18 16 12 12 15 15 19 21 22 22 20 23 27 21 24 24 23 23 26 28 27 27 27 27 27 27 27 27 27
20 19 20 23 25 27 27 23 16 23 24 27 24 22 17 19 17 16 18 25 20 22 26 26 26 24 27 28 28 24 24 26 27 28 28 28 28 27 27 27 27 28 28
22 23 22 21 23 20 20 30 36 38 31 23 21 22 22 22 21 21 21 23 25 27 30 28 29 26 24 24 25 24 28 29 29 28 27 28 28 27 28 28 28 27 28
Wind_Direction
232 241 229 209 222 271 50 42 38 31 35 24 24 20 7 50 86 83 71 58 63 66 72 67 57 78 359 331 349 273 251 257 258 260 276 260 267 294 288 276 283 282 290
230 220 190 182 196 198 134 69 41 34 25 13 6 18 140 166 168 112 53 44 50 53 58 57 71 68 340 258 266 263 261 266 261 260 266 256 260 281 293 297 290 290 293
198 168 175 184 195 207 94 44 30 21 14 16 359 334 285 221 241 265 339 2 19 10 9 3 11 20 26 319 296 294 275 278 289 291 261 230 273 275 270 297 290 297 306
160 174 178 189 201 205 75 23 14 7 12 7 356 341 303 275 270 289 307 328 349 355 357 358 360 360 12 12 357 336 311 287 287 287 275 264 278 271 277 292 292 305 312
173 184 192 203 208 211 307 343 8 5 13 10 353 325 302 276 274 286 295 307 323 334 354 6 19 19 14 4 352 342 335 327 319 311 305 293 293 285 293 294 302 301 311
207 210 212 222 231 226 249 303 334 343 4 10 5 322 308 292 279 278 281 292 299 307 329 351 357 359 358 352 342 337 335 331 323 313 306 301 300 299 301 304 307 308 309
208 228 227 224 248 237 258 286 310 336 343 354 358 358 328 294 277 276 291 292 302 312 336 342 344 346 342 330 325 323 321 322 319 312 306 302 301 301 301 303 303 305 305
224 219 225 223 234 237 257 277 300 319 327 339 340 345 340 353 295 271 268 262 266 270 298 308 306 320 327 323 322 323 321 318 312 309 302 300 299 299 299 299 299 301 302
238 207 231 240 239 235 250 255 284 304 314 319 325 328 322 326 335 272 255 256 257 269 283 289 284 302 321 321 316 320 318 324 306 307 304 297 297 299 299 301 306 311 317
236 188 213 230 244 227 247 265 279 293 302 314 316 321 313 315 319 317 285 261 266 282 287 288 286 304 322 322 311 321 325 322 323 315 308 305 304 304 304 303 300 293 287
195 220 223 243 289 237 243 262 267 280 299 303 301 311 304 301 308 311 301 286 258 263 278 289 289 293 316 314 307 314 315 319 318 317 314 318 321 325 328 322 318 313 300
214 269 250 253 269 204 226 258 272 275 288 288 289 300 292 305 307 304 307 296 283 270 275 282 283 292 303 306 311 315 319 323 323 328 333 328 330 327 328 329 325 318 311
271 248 281 263 263 275 268 274 266 267 265 277 286 291 285 295 294 288 292 289 283 279 279 282 287 297 308 310 316 321 329 329 337 325 316 317 320 321 320 324 322 319 312
271 274 275 267 271 266 265 264 258 260 270 280 276 280 278 287 291 289 293 289 293 290 288 288 288 297 305 313 321 322 327 327 323 316 314 316 321 326 326 327 325 325 325
268 269 271 271 278 276 268 261 254 264 267 266 269 272 276 280 286 284 286 286 286 290 291 290 293 299 302 318 323 321 319 318 317 316 319 322 322 323 326 329 332 334 332
275 278 274 271 271 270 267 261 256 254 254 259 266 269 273 276 277 281 280 278 281 284 283 286 283 291 281 290 304 309 306 311 314 317 317 320 322 324 328 326 327 328 330
277 281 281 281 278 276 269 258 253 251 253 258 258 260 261 266 271 274 274 272 275 280 284 289 253 266 270 282 284 283 291 312 312 311 315 319 319 320 327 322 324 326 318
283 281 279 279 279 276 270 262 257 256 255 250 254 257 259 264 267 269 267 266 267 272 273 251 251 264 270 275 277 285 294 306 309 310 312 311 309 310 316 317 330 303 316
277 276 273 273 273 272 268 263 256 253 256 257 256 255 256 259 263 264 261 262 265 265 260 236 247 264 269 269 272 278 281 281 289 298 301 306 306 317 316 320 314 321 322
274 270 271 268 264 263 261 258 254 255 251 257 251 254 257 260 263 262 261 260 261 245 249 240 257 262 265 267 277 282 293 308 317 327 307 287 307 298 287 275 277 290 293
282 272 265 265 258 260 253 252 238 242 250 255 253 255 258 262 261 262 262 260 255 244 241 243 243 270 270 272 282 275 271 282 289 286 278 276 277 294 296 294 298 285 276
285 275 270 257 251 251 246 244 245 248 245 246 245 255 256 259 259 264 266 264 256 250 252 256 241 235 251 255 254 255 263 264 266 269 274 293 298 299 300 302 297 292 295
280 274 269 252 235 244 241 233 237 227 224 220 234 252 252 254 232 232 237 239 249 244 254 264 266 251 241 256 264 272 275 280 279 289 293 295 294 294 295 296 296 295 294
277 273 261 263 237 248 235 215 216 213 211 217 220 250 272 265 247 231 234 236 252 265 270 279 279 271 267 282 277 273 276 282 285 290 293 291 291 291 293 294 294 294 296
278 277 267 275 265 246 250 229 213 230 221 224 230 234 224 234 262 248 249 254 277 282 273 272 279 271 267 274 270 275 281 283 285 287 288 288 289 291 291 293 294 295 296
277 272 270 266 256 250 233 220 217 222 227 214 224 233 230 240 253 270 273 274 279 279 280 275 275 272 271 269 273 282 282 285 286 286 286 286 288 291 293 295 295 296 297
Height
3171 3172 3175 3177 3179 3180 3178 3177 3177 3175 3172 3172 3171 3170 3170 3169 3170 3169 3168 3167 3165 3163 3162 3162 3161 3161 3161 3161 3161 3160 3161 3161 3162 3162 3162 3162 3162 3162 3162 3163 3164 3163 3162
3169 3168 3172 3175 3178 3179 3179 3178 3177 3174 3173 3172 3172 3170 3169 3170 3170 3169 3168 3167 3165 3164 3162 3162 3161 3161 3160 3160 3160 3161 3160 3160 3161 3161 3160 3160 3160 3160 3161 3160 3160 3160 3159
3168 3170 3173 3176 3178 3179 3178 3177 3176 3175 3175 3172 3171 3171 3170 3170 3170 3170 3169 3168 3166 3165 3164 3163 3162 3161 3161 3161 3160 3159 3159 3159 3159 3158 3159 3159 3159 3159 3158 3158 3157 3156 3155
3170 3172 3174 3176 3177 3178 3177 3177 3177 3177 3175 3173 3171 3170 3170 3170 3170 3170 3169 3168 3167 3166 3165 3164 3162 3162 3161 3161 3160 3159 3159 3159 3158 3157 3157 3157 3157 3157 3156 3156 3154 3152 3151
3171 3173 3174 3175 3176 3177 3178 3177 3178 3177 3174 3172 3170 3170 3170 3169 3169 3169 3168 3168 3167 3166 3165 3164 3163 3162 3161 3161 3160 3159 3158 3157 3156 3156 3155 3155 3155 3154 3153 3152 3151 3149 3148
3172 3173 3174 3174 3175 3176 3177 3177 3177 3176 3173 3171 3170 3169 3169 3168 3168 3168 3168 3167 3166 3165 3164 3164 3162 3161 3161 3161 3160 3158 3158 3156 3156 3155 3154 3153 3153 3152 3150 3149 3147 3146 3145
3169 3170 3172 3173 3175 3175 3175 3175 3175 3174 3172 3170 3169 3168 3167 3167 3167 3167 3166 3166 3166 3165 3164 3164 3163 3162 3161 3160 3159 3158 3156 3155 3154 3152 3151 3151 3150 3149 3148 3146 3145 3143 3141
3166 3166 3169 3171 3172 3172 3173 3173 3173 3172 3171 3170 3168 3167 3166 3166 3165 3165 3165 3165 3165 3164 3163 3163 3162 3161 3160 3159 3158 3157 3155 3153 3152 3150 3149 3148 3147 3146 3145 3143 3141 3139 3138
3159 3160 3167 3169 3169 3170 3171 3171 3171 3170 3169 3168 3167 3166 3165 3165 3164 3163 3163 3162 3162 3162 3161 3161 3160 3160 3159 3157 3156 3155 3154 3151 3149 3148 3146 3145 3144 3143 3142 3140 3138 3136 3135
3151 3159 3163 3164 3166 3167 3168 3168 3168 3168 3167 3166 3165 3164 3163 3163 3163 3162 3160 3161 3160 3160 3159 3159 3159 3158 3156 3154 3153 3151 3150 3148 3146 3145 3144 3143 3141 3140 3138 3136 3135 3133 3132
3155 3155 3159 3160 3158 3160 3164 3164 3165 3165 3165 3164 3163 3161 3160 3161 3160 3159 3158 3157 3157 3157 3156 3156 3156 3154 3154 3152 3150 3148 3147 3145 3143 3141 3139 3138 3137 3135 3135 3133 3131 3129 3127
3156 3157 3157 3157 3156 3158 3159 3160 3160 3160 3162 3161 3160 3158 3157 3157 3157 3156 3155 3154 3153 3153 3152 3152 3152 3151 3150 3149 3147 3145 3143 3141 3139 3138 3136 3135 3134 3132 3130 3129 3127 3125 3123
3155 3155 3155 3154 3155 3157 3156 3156 3155 3155 3156 3157 3156 3155 3154 3154 3154 3153 3151 3150 3149 3148 3148 3148 3147 3146 3145 3144 3143 3141 3139 3137 3136 3135 3134 3132 3131 3129 3127 3125 3123 3122 3120
3153 3152 3151 3151 3151 3152 3153 3152 3150 3150 3151 3151 3151 3151 3151 3150 3149 3148 3147 3146 3145 3144 3143 3143 3142 3142 3141 3139 3138 3137 3136 3134 3133 3132 3131 3129 3127 3126 3124 3122 3120 3118 3117
3150 3149 3148 3147 3146 3146 3146 3146 3146 3145 3146 3146 3147 3146 3146 3146 3145 3144 3143 3142 3142 3141 3140 3139 3139 3138 3137 3135 3135 3134 3133 3132 3131 3130 3128 3126 3124 3123 3121 3119 3117 3115 3114
3147 3146 3144 3143 3142 3141 3140 3140 3140 3140 3141 3141 3141 3141 3141 3141 3140 3139 3139 3138 3138 3138 3136 3136 3135 3135 3135 3133 3132 3131 3130 3130 3128 3126 3125 3124 3122 3120 3119 3117 3115 3113 3111
3143 3141 3139 3137 3137 3135 3135 3135 3135 3135 3136 3136 3136 3136 3136 3136 3135 3134 3135 3134 3133 3133 3133 3132 3133 3132 3131 3131 3130 3130 3128 3126 3125 3123 3122 3120 3119 3117 3116 3115 3113 3111 3109
3136 3135 3133 3132 3131 3131 3130 3130 3130 3130 3130 3130 3130 3130 3130 3130 3130 3129 3129 3129 3129 3129 3129 3130 3130 3128 3128 3127 3127 3126 3125 3122 3121 3120 3118 3117 3116 3115 3114 3113 3112 3109 3106
3129 3127 3127 3126 3126 3125 3125 3125 3125 3124 3123 3124 3125 3124 3125 3125 3124 3124 3125 3125 3124 3124 3125 3126 3125 3124 3124 3123 3123 3122 3121 3120 3118 3117 3116 3115 3114 3112 3112 3111 3110 3107 3104
3120 3119 3119 3119 3119 3119 3119 3119 3119 3118 3117 3117 3118 3118 3119 3119 3119 3119 3120 3120 3120 3121 3121 3121 3120 3120 3119 3119 3117 3117 3116 3115 3115 3114 3116 3114 3111 3110 3108 3106 3105 3104 3102
3108 3108 3109 3110 3110 3111 3111 3112 3113 3112 3112 3111 3111 3113 3114 3114 3114 3115 3116 3116 3116 3117 3117 3118 3118 3116 3115 3114 3114 3113 3115 3116 3115 3113 3113 3110 3106 3103 3101 3099 3096 3095 3096
3103 3101 3100 3102 3103 3103 3105 3105 3105 3106 3106 3107 3106 3108 3109 3110 3111 3110 3111 3111 3112 3112 3112 3113 3114 3115 3113 3112 3110 3110 3111 3110 3109 3107 3104 3102 3100 3097 3095 3093 3091 3090 3088
3098 3096 3096 3097 3097 3097 3099 3100 3101 3102 3103 3104 3103 3103 3105 3106 3108 3108 3108 3108 3107 3108 3107 3108 3108 3108 3107 3104 3105 3104 3103 3102 3100 3098 3097 3095 3093 3090 3088 3086 3084 3081 3079
3092 3091 3091 3092 3090 3091 3091 3094 3098 3100 3101 3102 3102 3099 3100 3101 3103 3105 3106 3105 3103 3102 3101 3100 3100 3100 3098 3098 3096 3096 3095 3094 3092 3090 3089 3087 3085 3082 3080 3078 3076 3073 3071
3086 3085 3085 3085 3085 3084 3086 3086 3093 3093 3094 3092 3093 3095 3096 3096 3097 3098 3098 3096 3096 3095 3093 3092 3091 3091 3091 3090 3087 3087 3087 3085 3084 3083 3081 3078 3076 3074 3072 3070 3068 3065 3062
3080 3079 3079 3079 3080 3079 3081 3082 3083 3083 3083 3086 3089 3090 3090 3090 3091 3091 3090 3090 3088 3087 3086 3083 3082 3082 3081 3081 3080 3080 3078 3077 3076 3074 3072 3070 3067 3065 3063 3061 3059 3057 3054